Location: D?uga
(50.2667°N, 19.7833°E)
Time: 01:54:07
(UTC+00:00)

CZ-2D R/B - Pass Details

Date: 23 May 2024
Orbit: 790 x 843 km, 98.8° (Epoch: 18 June)

Event Time Altitude Azimuth Distance (km) Brightness Sun altitude
Rises 01:49:38 0° 9° (N) 3,415 6.4 -7.4°
Reaches altitude 10° 01:52:09 10° 2° (N) 2,474 5.4 -7.1°
Maximum altitude 01:57:08 37° 297° (WNW) 1,294 3.1 -6.6°
Drops below altitude 10° 02:02:03 10° 232° (SW) 2,443 3.9 -6.0°
Enters shadow 02:02:44 - 229° (SW) 2,693 4.1 -5.9°
